International Skating Union - Official Site

ISU World Single Distances Championships 2017
February 9-12,2017

Draw | Lap Times | Index

Referee: Bjørn  PETTERSEN  (NOR)
Starter: Garth  LINDER  (USA)
StartTime: EndTime: Air Temp: Ice Temp: Humidity:
19:03 19:18 15 ℃ -9 ℃ 34%
Result Team Pursuit Ladies
Rankings as of Feb 12 2017 8:48PM
Rank: No.: Team: Nation: Time: Behind:
Total 8
1 401 Netherlands (159) Ireen Wüst (153) Marrit Leenstra (149) Antoinette de Jong (158) Annouk van der Weijden NED NED 2:55.850.5 - 18.29 - (18.2)
1.0 - 32.02 - (13.7)
1.5 - 45.57 - (13.5)
2.0 - 59.36 - (13.7)
2.5 - 1:13.32 - (13.9)
3.0 - 1:27.50 - (14.1)
3.5 - 1:41.96 - (14.4)
4.0 - 1:56.59 - (14.6)
4.5 - 2:11.34 - (14.7)
5.0 - 2:26.35 - (15.0)
5.5 - 2:41.07 - (14.7)
6.0 - 2:55.85 - (14.7)
2 402 Japan (137) Miho Takagi (135) Misaki Oshigiri (138) Nana Takagi (136) Ayano Sato JPN JPN 2:56.500.5 - 18.44 - (18.4)
1.0 - 32.64 - (14.2)
1.5 - 46.79 - (14.1)
2.0 - 1:00.84 - (14.0)
2.5 - 1:15.09 - (14.2)
3.0 - 1:29.15 - (14.0)
3.5 - 1:43.48 - (14.3)
4.0 - 1:58.04 - (14.5)
4.5 - 2:12.40 - (14.3)
5.0 - 2:26.86 - (14.4)
5.5 - 2:41.64 - (14.7)
6.0 - 2:56.50 - (14.8)
0.65
3 403 Russia (171) Olga Graf (175) Natalia Voronina (174) Yekaterina Shikhova (172) Elizaveta Kazelina RUS RUS 3:00.510.5 - 19.37 - (19.3)
1.0 - 33.93 - (14.5)
1.5 - 47.91 - (13.9)
2.0 - 1:02.14 - (14.2)
2.5 - 1:16.53 - (14.3)
3.0 - 1:31.29 - (14.7)
3.5 - 1:45.99 - (14.7)
4.0 - 2:00.87 - (14.8)
4.5 - 2:15.65 - (14.7)
5.0 - 2:30.60 - (14.9)
5.5 - 2:45.53 - (14.9)
6.0 - 3:00.51 - (14.9)
4.66
4 404 Germany (128) Roxane Dufter (129) Gabriele Hirschbichler (131) Claudia Pechstein (130) Bente Kraus GER GER 3:02.880.5 - 19.03 - (19.0)
1.0 - 32.93 - (13.9)
1.5 - 47.04 - (14.1)
2.0 - 1:01.35 - (14.3)
2.5 - 1:15.98 - (14.6)
3.0 - 1:30.70 - (14.7)
3.5 - 1:45.51 - (14.8)
4.0 - 2:00.55 - (15.0)
4.5 - 2:15.83 - (15.2)
5.0 - 2:31.24 - (15.4)
5.5 - 2:47.00 - (15.7)
6.0 - 3:02.88 - (15.8)
7.03
5 406 Korea (141) Bo-Reum Kim (144) Seon-Yeong Noh (145) Ji Woo Park KOR KOR 3:02.950.5 - 19.30 - (19.3)
1.0 - 33.63 - (14.3)
1.5 - 47.86 - (14.2)
2.0 - 1:01.87 - (14.0)
2.5 - 1:16.31 - (14.4)
3.0 - 1:30.83 - (14.5)
3.5 - 1:45.86 - (15.0)
4.0 - 2:01.17 - (15.3)
4.5 - 2:16.61 - (15.4)
5.0 - 2:32.01 - (15.4)
5.5 - 2:47.51 - (15.5)
6.0 - 3:02.95 - (15.4)
7.10
6 408 USA (177) Petra Acker (179) Kelly Gunther (180) Mia Manganello (178) Heather Bergsma USA USA 3:04.010.5 - 19.60 - (19.6)
1.0 - 34.01 - (14.4)
1.5 - 48.21 - (14.2)
2.0 - 1:02.47 - (14.2)
2.5 - 1:16.87 - (14.4)
3.0 - 1:31.34 - (14.4)
3.5 - 1:46.15 - (14.8)
4.0 - 2:01.08 - (14.9)
4.5 - 2:16.36 - (15.2)
5.0 - 2:31.90 - (15.5)
5.5 - 2:47.88 - (15.9)
6.0 - 3:04.01 - (16.1)
8.16
7 405 Poland (163) Katarzyna Bachleda-Curus (164) Natalia Czerwonka (166) Katarzyna Wozniak (167) Luiza Zlotkowska POL POL 3:04.160.5 - 19.13 - (19.1)
1.0 - 33.81 - (14.6)
1.5 - 48.15 - (14.3)
2.0 - 1:02.61 - (14.4)
2.5 - 1:17.02 - (14.4)
3.0 - 1:31.65 - (14.6)
3.5 - 1:46.51 - (14.8)
4.0 - 2:01.67 - (15.1)
4.5 - 2:16.71 - (15.0)
5.0 - 2:32.10 - (15.3)
5.5 - 2:48.06 - (15.9)
6.0 - 3:04.16 - (16.1)
8.31
8 407 Canada (105) Ivanie Blondin (109) Brianne Tutt (110) Isabelle Weidemann CAN CAN DNF0.5 - 19.19 - (19.1)
1.0 - 33.28 - (14.0)
1.5 - 47.35 - (14.0)
2.0 - 1:01.30 - (13.9)
2.5 - 1:15.49 - (14.1)
3.0 - 1:30.02 - (14.5)
3.5 - 1:44.59 - (14.5)
4.0 - 1:59.53 - (14.9)
4.5 - 2:14.59 - (15.0)
5.0 - 2:30.02 - (15.4)
5.5 - 2:45.24 - (15.2)